American Canyon, CA

11:53 AM PST on February 24, 2017 (GMT -0800)
Napa County

Weather History for KAPC - June, 2014

Change the Weather History Date:

Wednesday, June 25, 2014

  Actual Average Record
Temperature  
Mean Temperature 66 °F 65 °F  
Max Temperature 78 °F 80 °F 96 °F (2003)
Min Temperature 54 °F 51 °F 44 °F (1928)
Degree Days  
Heating Degree Days 0    
Month to date heating degree days 43  
Since 1 June heating degree days 43  
Since 1 July heating degree days 2935  
Cooling Degree Days 1    
Month to date cooling degree days 22  
Year to date cooling degree days 33  
Since 1 June cooling degree days 22  
Growing Degree Days 15 (Base 50)    
Moisture  
Dew Point 57 °F    
Average Humidity 74    
Maximum Humidity 93    
Minimum Humidity 54    
Precipitation  
Precipitation T in - 0.14 in (2013)
Month to date precipitation T  
Year to date precipitation 8.27  
Since 1 July precipitation 10.47  
Sea Level Pressure  
Sea Level Pressure 29.92 in    
Wind  
Wind Speed 13 mph (WSW)    
Max Wind Speed 29 mph    
Max Gust Speed 34 mph    
Visibility 10 miles    
Events Rain    
T = Trace of Precipitation, MM = Missing Value Source: NWS Daily Summary

Daily Weather History Graph

Daily Weather History Graph

Search for Another Location

Airport or City:

Trip Planner

Search our weather history database for the weather conditions in past years. The results will help you decide how hot, cold, wet, or windy it might be!

Date:

Astronomy

Jun. 25, 2014 Rise Set
Actual Time 5:47 AM PDT 8:36 PM PDT
Civil Twilight 5:15 AM PDT 9:07 PM PDT
Nautical Twilight 4:35 AM PDT 9:47 PM PDT
Astronomical Twilight 3:50 AM PDT 10:32 PM PDT
Moon 4:41 AM PDT (6/25) 7:14 PM PDT (6/25)
Length of Visible Light 15h 52m
Length of Day
14h 49m
Waning Crescent, 2% of the Moon is Illuminated
Jun 25
Waning Crescent
Jun 27
New
Jul 5
First Quarter
Jul 12
Full
Jul 18
Last Quarter

Hourly Weather History & Observations

Time (PDT) Temp. Dew Point Humidity Pressure Visibility Wind Dir Wind Speed Gust Speed Precip Events Conditions
12:54 AM 60.1 °F 57.0 °F 90% 29.89 in 10.0 mi SW 16.1 mph - 0.00 in Rain Light Rain
1:54 AM 57.9 °F 55.0 °F 90% 29.89 in 10.0 mi WSW 8.1 mph - 0.00 in Rain Light Rain
2:54 AM 57.0 °F 54.0 °F 89% 29.90 in 10.0 mi WSW 12.7 mph - 0.00 in Rain Light Rain
3:54 AM 57.0 °F 54.0 °F 89% 29.90 in 10.0 mi SW 9.2 mph - 0.00 in Rain Light Rain
4:54 AM 55.9 °F 54.0 °F 93% 29.90 in 10.0 mi WSW 9.2 mph - 0.00 in   Clear
5:54 AM 55.0 °F 53.1 °F 93% 29.91 in 10.0 mi WSW 8.1 mph - N/A   Clear
6:54 AM 57.0 °F 55.0 °F 93% 29.91 in 10.0 mi SW 6.9 mph - N/A   Clear
7:54 AM 59.0 °F 54.0 °F 83% 29.92 in 10.0 mi SW 12.7 mph - N/A   Partly Cloudy
8:54 AM 63.0 °F 55.0 °F 75% 29.94 in 10.0 mi WSW 12.7 mph - N/A   Partly Cloudy
9:54 AM 66.9 °F 57.0 °F 70% 29.93 in 10.0 mi SSW 12.7 mph - N/A   Partly Cloudy
10:16 AM 69.1 °F 55.9 °F 63% 29.95 in 10.0 mi WSW 15.0 mph - N/A   Clear
10:54 AM 70.0 °F 55.9 °F 61% 29.92 in 10.0 mi WSW 16.1 mph - 0.00 in   Clear
11:54 AM 75.9 °F 57.0 °F 52% 29.92 in 10.0 mi SW 18.4 mph 25.3 mph 0.00 in Rain Light Rain
12:54 PM 75.9 °F 59.0 °F 56% 29.92 in 10.0 mi SW 17.3 mph - 0.00 in Rain Light Rain
1:54 PM 75.9 °F 59.0 °F 56% 29.92 in 10.0 mi SW 23.0 mph - 0.00 in Rain Light Rain
2:54 PM 73.9 °F 57.9 °F 57% 29.94 in 10.0 mi SW 16.1 mph - 0.00 in Rain Light Rain
3:54 PM 73.9 °F 57.9 °F 57% 29.94 in 10.0 mi West 18.4 mph - 0.00 in Rain Light Rain
4:54 PM 73.9 °F 59.0 °F 59% 29.92 in 10.0 mi SW 19.6 mph 25.3 mph 0.00 in Rain Light Rain
7:54 PM 64.9 °F 57.9 °F 78% 29.91 in 10.0 mi West 8.1 mph - 0.00 in Rain Light Rain
8:54 PM 63.0 °F 59.0 °F 87% 29.91 in 10.0 mi West 9.2 mph - 0.00 in Rain Light Rain
9:26 PM 62.1 °F 57.9 °F 86% 29.95 in 10.0 mi WNW 6.9 mph - 0.00 in   Mostly Cloudy
10:13 PM 61.0 °F 57.9 °F 90% 29.95 in 10.0 mi WSW 11.5 mph - 0.00 in Rain Light Rain
10:54 PM 61.0 °F 57.9 °F 90% 29.94 in 10.0 mi NW 6.9 mph - 0.00 in Rain Light Rain
11:54 PM 60.1 °F 57.9 °F 93% 29.93 in 10.0 mi WNW 3.5 mph - 0.00 in Rain Light Rain